[[{"header":{"parameterUnit":"m.s-1","parameterCategory":1,"la1":30.2991,"la2":30.254,"lo1":-89.0895,"lo2":-89.0444,"dy":0.0017,"dx":0.0017,"nx":28,"ny":28,"refTime":"2023-09-22T03:00:00:Z","depth":0,"parameterNumber":2,"parameterNumberName":"U-component_of_WINDS"},"data":[0,0,0,0,0,0,0,0,0,0,0,0,0,0,0,0,0,0,0,0,0,0,0,0,0,0,0,0,0,0,0,0,0,0,0,0,0,0,0,0,0,0,0,0,0,0,0,0,0,0,0,0,0,0,0,0,0,0,-0.9141,-0.914,0,-0.91,-0.9099,-0.9099,-0.908,-0.908,-0.908,-0.908,-0.9035,-0.9034,-0.9033,0,0,0,0,0,0,0,0,0,0,0,0,0,-0.92,-0.9199,-0.9141,-0.914,-0.914,-0.91,-0.9099,-0.9099,-0.908,-0.908,-0.908,-0.908,-0.9036,-0.9034,-0.9033,0,0,0,0,0,0,0,0,0,0,0,0,0,-0.9168,-0.9198,-0.9141,-0.9125,-0.9124,-0.91,-0.9099,-0.9098,-0.908,-0.908,-0.908,-0.908,-0.9036,-0.9034,-0.9032,-0.902,0,0,-0.9027,-0.9026,0,0,0,0,0,0,0,0,-0.917,-0.9166,-0.9128,-0.9126,-0.9124,-0.9095,-0.9104,-0.9072,-0.908,-0.9096,-0.908,-0.908,-0.9055,-0.9051,-0.9044,-0.9018,-0.9016,-0.9027,-0.9026,-0.9025,-0.9024,0,0,0,0,0,0,0,-0.9172,-0.9167,-0.9124,-0.9128,-0.9125,-0.912,-0.9115,-0.9098,-0.9076,-0.9095,-0.9093,-0.9089,-0.9054,-0.9045,-0.9042,-0.9015,-0.9027,-0.9025,-0.9024,-0.9023,-0.8978,-0.8977,0,0,0,0,0,0,-0.9177,-0.9169,-0.9126,-0.9123,-0.9148,-0.9119,-0.9114,-0.9104,-0.9076,-0.9072,-0.9089,-0.9088,-0.9048,-0.9045,-0.9041,-0.9024,-0.9025,-0.9023,-0.9022,-0.8978,-0.8977,-0.8977,0,0,0,0,0,0,-0.9178,-0.9173,-0.9127,-0.9146,-0.914,-0.9118,-0.9107,-0.9103,-0.9095,-0.9071,-0.9067,-0.9085,-0.9048,-0.9043,-0.9026,-0.9023,-0.9022,-0.9021,-0.8978,-0.8978,-0.8977,-0.8992,0,0,0,0,0,0,-0.918,-0.9174,-0.917,-0.9146,-0.9139,-0.9114,-0.9107,-0.9103,-0.9092,-0.9091,-0.9066,-0.9062,-0.9048,-0.9028,-0.9024,-0.902,-0.9019,-0.8978,-0.8978,-0.8977,-0.8991,-0.8992,-0.8992,0,0,0,0,0,-0.9182,-0.9175,-0.917,-0.9164,-0.9133,-0.9114,-0.9109,-0.9094,-0.9092,-0.9087,-0.9072,-0.9063,-0.9024,-0.9027,-0.9021,-0.9017,-0.8978,-0.8978,-0.8977,-0.8991,-0.8992,-0.8992,0,0,0,0,0,0,-0.9198,-0.9171,-0.9165,-0.915,-0.9134,-0.911,-0.9104,-0.9095,-0.9079,-0.9078,-0.9059,-0.9054,-0.9038,-0.9025,-0.9029,-0.9003,-0.9,-0.8999,-0.9012,-0.9013,-0.9013,-0.9016,-0.9018,0,0,0,0,0,-0.9199,-0.9187,-0.9164,-0.9153,-0.9145,-0.9126,-0.9117,-0.9107,-0.9089,-0.9082,-0.9065,-0.9048,-0.9032,-0.9022,-0.9005,-0.899,-0.8984,-0.8984,-0.8984,-0.8985,-0.8984,-0.8974,-0.8974,-0.8976,-0.8976,-0.8976,0,0,-0.9203,-0.9187,-0.918,-0.9155,-0.9142,-0.9128,-0.912,-0.9106,-0.9096,-0.908,-0.9062,-0.9049,-0.9029,-0.9012,-0.9004,-0.9001,-0.8982,-0.8985,-0.8985,-0.8984,-0.8974,-0.8974,-0.8974,-0.8976,-0.8976,-0.8976,0,0,-0.9201,-0.9188,-0.9177,-0.9164,-0.9145,-0.9132,-0.9129,-0.9107,-0.9098,-0.908,-0.9068,-0.9055,-0.9027,-0.9013,-0.9002,-0.8996,-0.8987,-0.8991,-0.8994,-0.8985,-0.8985,-0.8985,-0.8982,-0.8981,-0.899,-0.899,-0.899,0,-0.9208,-0.9188,-0.9173,-0.9159,-0.9149,-0.9135,-0.9123,-0.9111,-0.9086,-0.9079,-0.9077,-0.9042,-0.9027,-0.9007,-0.9005,-0.8997,-0.8993,-0.8994,-0.8986,-0.8986,-0.8985,-0.8983,-0.8982,-0.8991,-0.8991,-0.8991,-0.8991,0,-0.9196,-0.9182,-0.9176,-0.9154,-0.9142,-0.913,-0.9112,-0.9102,-0.9093,-0.908,-0.9062,-0.9044,-0.9024,-0.9018,-0.9009,-0.8996,-0.8995,-0.899,-0.8986,-0.8986,-0.8983,-0.8982,-0.8992,-0.8992,-0.8991,-0.8991,0,0,-0.9203,-0.9173,-0.9171,-0.9161,-0.9138,-0.9127,-0.9113,-0.9094,-0.9086,-0.907,-0.9058,-0.9035,-0.903,-0.9018,-0.9006,-0.8999,-0.8995,-0.8994,-0.8993,-0.8995,-0.898,-0.8984,-0.8983,-0.8989,-0.8988,-0.8988,-0.8981,0,-0.9199,-0.9175,-0.9162,-0.9143,-0.913,-0.9117,-0.9105,-0.9089,-0.9077,-0.9063,-0.9049,-0.9034,-0.9028,-0.9021,-0.9012,-0.8997,-0.8991,-0.8997,-0.8976,-0.8976,-0.8982,-0.8981,-0.8986,-0.898,-0.898,-0.898,-0.898,0,-0.9191,-0.9175,-0.9156,-0.9135,-0.9129,-0.9119,-0.9101,-0.9088,-0.907,-0.9061,-0.9048,-0.9037,-0.9021,-0.9019,-0.8997,-0.9002,-0.8992,-0.8983,-0.8983,-0.898,-0.8978,-0.8978,-0.8978,-0.8977,-0.8978,-0.8978,-0.8978,0,-0.9198,-0.9172,-0.9158,-0.9149,-0.9124,-0.9117,-0.9106,-0.9088,-0.9078,-0.9061,-0.9054,-0.9036,-0.9026,-0.9012,-0.8996,-0.8995,-0.8975,-0.8972,-0.8967,-0.8968,-0.8964,-0.8964,-0.8962,-0.8958,-0.8958,-0.8958,-0.8958,0,-0.9194,-0.9183,-0.916,-0.9151,-0.9138,-0.9122,-0.9109,-0.9097,-0.9081,-0.9069,-0.9055,-0.9044,-0.9023,-0.9009,-0.8996,-0.898,-0.8976,-0.8968,-0.8965,-0.8969,-0.897,-0.8963,-0.8962,-0.8958,-0.8958,-0.8958,-0.8958,0,-0.9199,-0.9184,-0.9167,-0.9145,-0.9139,-0.913,-0.9111,-0.9101,-0.9089,-0.9073,-0.9069,-0.9048,-0.9031,-0.9014,-0.899,-0.8981,-0.8965,-0.8961,-0.8972,-0.897,-0.8967,-0.8967,-0.8959,-0.8957,-0.8955,-0.8955,-0.8955,0,-0.9198,-0.9189,-0.9166,-0.9158,-0.9147,-0.9133,-0.9123,-0.9106,-0.9096,-0.9075,-0.9067,-0.9049,-0.9034,-0.9007,-0.8989,-0.8971,-0.8966,-0.8964,-0.8963,-0.8968,-0.8966,-0.8966,-0.8965,-0.8965,-0.8965,-0.8965,-0.8965,0,-0.9197,-0.919,-0.9176,-0.9159,-0.9148,-0.9133,-0.9118,-0.9112,-0.9092,-0.9081,-0.9064,-0.9052,-0.9028,-0.901,-0.899,-0.8978,-0.8968,-0.8966,-0.8964,-0.8968,-0.8975,-0.8971,-0.8973,-0.8966,-0.8966,-0.8966,-0.8966,-0.8966,-0.9199,-0.9191,-0.9173,-0.9158,-0.9145,-0.9132,-0.9122,-0.9108,-0.9094,-0.9074,-0.9064,-0.9047,-0.9028,-0.9001,-0.8989,-0.8974,-0.8971,-0.8969,-0.8968,-0.8967,-0.8968,-0.8977,-0.897,-0.897,-0.897,-0.897,-0.897,0,-0.9197,-0.9186,-0.9172,-0.9152,-0.914,-0.9133,-0.9116,-0.9106,-0.9091,-0.9075,-0.906,-0.904,-0.9023,-0.9004,-0.8986,-0.8978,-0.8973,-0.8973,-0.8973,-0.8971,-0.8972,-0.8975,-0.8977,-0.8977,-0.8977,-0.8977,-0.8977,-0.8977,-0.9195,-0.918,-0.9171,-0.915,-0.9138,-0.9122,-0.9113,-0.91,-0.9087,-0.9066,-0.9051,-0.904,-0.9022,-0.9002,-0.8986,-0.8981,-0.8974,-0.8976,-0.897,-0.8971,-0.8971,-0.897,-0.8973,-0.8975,-0.8975,-0.897,-0.897,-0.897]},{"header":{"parameterUnit":"m.s-1","parameterCategory":1,"la1":30.2991,"la2":30.254,"lo1":-89.0895,"lo2":-89.0444,"dy":0.0017,"dx":0.0017,"nx":28,"ny":28,"refTime":"2023-09-22T03:00:00:Z","depth":0,"parameterNumber":3,"parameterNumberName":"V-component_of_WINDS"},"data":[0,0,0,0,0,0,0,0,0,0,0,0,0,0,0,0,0,0,0,0,0,0,0,0,0,0,0,0,0,0,0,0,0,0,0,0,0,0,0,0,0,0,0,0,0,0,0,0,0,0,0,0,0,0,0,0,0,0,0.1516,0.1517,0,0.1594,0.1595,0.1596,0.1645,0.1645,0.1645,0.1646,0.1726,0.1728,0.1729,0,0,0,0,0,0,0,0,0,0,0,0,0,0.1406,0.1408,0.1516,0.1517,0.1518,0.1594,0.1595,0.1596,0.1645,0.1645,0.1646,0.1646,0.1725,0.1727,0.173,0,0,0,0,0,0,0,0,0,0,0,0,0,0.1466,0.1409,0.1516,0.1551,0.1555,0.1594,0.1595,0.1597,0.1645,0.1645,0.1646,0.1646,0.1724,0.1727,0.173,0.1739,0,0,0.1738,0.174,0,0,0,0,0,0,0,0,0.1463,0.147,0.1545,0.1549,0.1554,0.161,0.1586,0.1645,0.1645,0.1611,0.1646,0.1646,0.1687,0.1693,0.1707,0.1743,0.1747,0.1739,0.174,0.1742,0.1742,0,0,0,0,0,0,0,0.1459,0.1467,0.1547,0.1546,0.1551,0.1563,0.1572,0.1597,0.1646,0.1614,0.1618,0.1626,0.1689,0.1704,0.1709,0.1748,0.1739,0.1741,0.1743,0.1744,0.1793,0.1793,0,0,0,0,0,0,0.1449,0.1463,0.1545,0.155,0.1508,0.1564,0.1574,0.1592,0.1646,0.1654,0.1626,0.1628,0.1699,0.1706,0.1712,0.1725,0.1742,0.1744,0.1746,0.1793,0.1793,0.1793,0,0,0,0,0,0,0.1446,0.1456,0.1542,0.1507,0.1519,0.1566,0.1585,0.1593,0.1608,0.1655,0.1663,0.1632,0.1699,0.1708,0.1732,0.1728,0.1746,0.1748,0.1794,0.1793,0.1793,0.1752,0,0,0,0,0,0,0.1443,0.1455,0.1459,0.1507,0.1521,0.156,0.1585,0.1594,0.1612,0.1616,0.1663,0.1671,0.17,0.1727,0.1734,0.1733,0.175,0.1794,0.1794,0.1793,0.1753,0.175,0.1746,0,0,0,0,0,0.1439,0.1445,0.1459,0.1469,0.1528,0.156,0.1568,0.1602,0.1612,0.1617,0.1646,0.1669,0.1728,0.1729,0.1738,0.1737,0.1795,0.1794,0.1793,0.1755,0.175,0.1747,0,0,0,0,0,0,0.1397,0.1452,0.1469,0.1491,0.152,0.1568,0.1575,0.1596,0.1624,0.1626,0.1667,0.1677,0.1696,0.1719,0.172,0.1747,0.1764,0.1764,0.1732,0.1728,0.1724,0.1718,0.1753,0,0,0,0,0,0.139,0.1412,0.1459,0.1474,0.1488,0.1529,0.1544,0.1567,0.16,0.1613,0.1644,0.1674,0.1699,0.1715,0.1741,0.1757,0.1767,0.176,0.1757,0.1754,0.1754,0.1761,0.1759,0.179,0.179,0.179,0,0,0.1376,0.1409,0.1421,0.1466,0.1492,0.1512,0.1539,0.1561,0.1576,0.1616,0.164,0.1664,0.17,0.1719,0.1729,0.1739,0.1747,0.1753,0.175,0.1752,0.176,0.1757,0.1754,0.1789,0.1789,0.1789,0,0,0.1361,0.1389,0.1403,0.1428,0.1466,0.1493,0.1496,0.154,0.1558,0.1582,0.1612,0.163,0.1673,0.1697,0.1715,0.1705,0.1727,0.1713,0.1694,0.1701,0.1699,0.1697,0.1692,0.169,0.1713,0.1713,0.1713,0,0.1339,0.1372,0.1408,0.1427,0.1445,0.1481,0.1495,0.1517,0.1562,0.1573,0.1583,0.1635,0.1663,0.1687,0.1684,0.1698,0.1702,0.1708,0.1696,0.1695,0.1693,0.1689,0.1687,0.1711,0.1711,0.1711,0.1711,0,0.1342,0.1365,0.1371,0.1412,0.1431,0.1448,0.1485,0.1499,0.152,0.1546,0.1569,0.1602,0.1634,0.1642,0.1663,0.1668,0.1672,0.1689,0.1706,0.1688,0.1684,0.1683,0.1708,0.1708,0.1709,0.1709,0,0,0.1305,0.1363,0.1365,0.1383,0.1426,0.1444,0.1461,0.1491,0.1502,0.1531,0.1545,0.1579,0.1594,0.1614,0.1638,0.1644,0.1632,0.166,0.1661,0.1652,0.1637,0.1623,0.1621,0.1646,0.1646,0.1646,0.1633,0,0.1296,0.1328,0.1359,0.138,0.14,0.1433,0.1447,0.1474,0.1498,0.1517,0.1543,0.1566,0.1584,0.1596,0.1604,0.1632,0.1629,0.1633,0.1659,0.1659,0.1647,0.1619,0.1606,0.1592,0.1632,0.1632,0.1632,0,0.129,0.1316,0.1338,0.1377,0.1386,0.1398,0.1427,0.1446,0.1477,0.1493,0.1514,0.1539,0.1557,0.1572,0.1596,0.1598,0.161,0.1625,0.1625,0.1628,0.1644,0.162,0.1588,0.1585,0.163,0.163,0.1631,0,0.1258,0.1299,0.1317,0.1331,0.1377,0.1384,0.1404,0.1435,0.1451,0.1476,0.1486,0.1513,0.1528,0.1547,0.1578,0.1587,0.1598,0.1617,0.1611,0.161,0.1612,0.1611,0.158,0.1622,0.1622,0.1622,0.1622,0,0.1244,0.1256,0.1302,0.1313,0.1327,0.1362,0.1374,0.1396,0.1423,0.1438,0.1469,0.1482,0.1522,0.154,0.1564,0.1579,0.1586,0.1599,0.1605,0.1595,0.1593,0.1603,0.1604,0.1621,0.1621,0.1621,0.1622,0,0.1212,0.1243,0.1264,0.1305,0.1316,0.1323,0.1358,0.1369,0.1393,0.1411,0.1418,0.1455,0.1477,0.151,0.1543,0.1559,0.1569,0.158,0.1558,0.1562,0.1554,0.1553,0.1527,0.1525,0.1568,0.1568,0.1568,0,0.12,0.121,0.1251,0.1262,0.128,0.1299,0.1315,0.1349,0.1363,0.1397,0.1403,0.1427,0.1448,0.1482,0.1512,0.1536,0.1546,0.1536,0.155,0.1539,0.1544,0.1542,0.1542,0.1532,0.1531,0.1531,0.153,0,0.1176,0.119,0.1211,0.1236,0.1253,0.1275,0.1298,0.1306,0.1344,0.1359,0.1381,0.1397,0.1428,0.1451,0.1479,0.1498,0.152,0.1525,0.1525,0.1515,0.1501,0.1506,0.1547,0.1526,0.1526,0.1526,0.1527,0.1527,0.1153,0.1162,0.1191,0.1212,0.1232,0.1253,0.1264,0.1288,0.1307,0.1335,0.1354,0.1374,0.1402,0.1441,0.1459,0.1475,0.1484,0.1485,0.1484,0.1483,0.1479,0.1499,0.148,0.1481,0.1481,0.1481,0.1481,0,0.1129,0.1149,0.1168,0.1198,0.1213,0.1232,0.1257,0.1269,0.1287,0.1311,0.133,0.1354,0.1375,0.1406,0.1429,0.1436,0.1446,0.144,0.144,0.1443,0.147,0.1467,0.1432,0.1432,0.1432,0.1432,0.1432,0.1432,0.1118,0.1133,0.115,0.1175,0.1195,0.1214,0.1227,0.1244,0.1263,0.1288,0.1306,0.1325,0.1351,0.1376,0.1396,0.1404,0.1411,0.1402,0.1413,0.1437,0.1442,0.1446,0.1443,0.1403,0.1403,0.1384,0.1384,0.1384]}]]